Location: Jackson Park
(37.2862°N, 79.9123°W)
Time: 15:08:40
(UTC+00:00)

Vanguard 1 Rocket - Pass Details

Date: 16 May 2026
Orbit: 656 x 4211 km, 34.3° (Epoch: 8 June)

Event Time Altitude Azimuth Distance (km) Brightness Sun altitude
Rises 00:21:35 0° 279° (W) 5,522 13.3 -0.8°
Reaches altitude 10° 00:24:32 10° 277° (W) 4,879 12.7 -1.3°
Maximum altitude 00:39:59 68° 199° (SSW) 3,599 10.4 -4.1°
Drops below altitude 10° 01:05:16 10° 123° (ESE) 7,408 11.3 -8.5°
Enters shadow 01:05:46 - 123° (ESE) 7,492 11.3 -8.5°
Sets 01:11:07 0° 121° (ESE) 8,384 - -9.4°
